< < Back
Terminal Aerodrome Forecast


Current Version              Previous Versions:   1  2  3  4  5  6  7  8  9  

Terminal Aerodrome Forecast

716
FTUS42 KJAX 271120
TAFJAX
TAF
KJAX 271120Z 2712/2812 VRB03KT P6SM FEW040 SCT130 BKN200
     FM271400 27005KT P6SM SCT030
     FM271900 15008KT P6SM SCT050
     FM280100 VRB04KT P6SM FEW030 SCT250=

Latest METAR

746
SAUS80 KWBC 281600 CCA
MTRJAX
METAR KJAX 281556Z VRB03KT 10SM FEW035 FEW200 34/21 A3005 RMK AO2 SLP176
T03390211


USA.gov is the U.S. government's official web portal to all federal, state and local government web resources and services.